sat.trackr.live / text

‹ back to catalog

UNKNOWN

NORAD 81392

UNKNOWN UNKNOWN UNKNOWN

§ Identity

Operator
Country
Launch date
Launch site
Launch vehicle
Mass (kg)
RCS (m²)

External: N2YO · Heavens-Above

§ Orbital elements

Epoch: 2026-05-22T07:21:35.881920Z

Period
104.14 min
Inclination
100.4029°
Eccentricity
0.0036605
Mean motion
13.82716531 rev/d
Perigee alt
927.4 km
Apogee alt
981.1 km
Semi-major
7,332.4 km
B*
2.1029e-3
RAAN
151.9778°
Arg perigee
351.2797°
Mean anomaly
25.2344°
Rev number
62,436

§ Raw data

UNKNOWN1 81392U          26142.30666530  .00002246  00000+0  21029-2 0  99962 81392 100.4029 151.9778 0036605 351.2797  25.2344 13.82716531624361

JSON: /api/v1/satellites/81392 · /tle

For live sub-satellite position, see the globe view (requires WebGL).

§ Visibility from observer

Set your observer location to see the next 7 days of passes ≥ 10°. The values pass through the URL so the page stays shareable.

No JS? Fill the form by hand. The geolocation button needs JavaScript.